• In Kazakhstan
  • List of Countries
  • For 7 days
  • Water Temperature
  • Satellite Maps
  • Weather Map
  • News
  • Weather Widgets
  • user-avatar
    Login

    Hourly Weather Artashat

    Today, 16 January, Wednesday

    Time Temperature Precipitation Wind Pressure Humidity
    00:00 -8°C° 0 mm 3 mps 595 mmHg 68%
    01:00 -8°C° 0 mm 3 mps 594 mmHg 68%
    02:00 -9°C° 0 mm 3 mps 594 mmHg 68%
    03:00 -8°C° 0 mm 3 mps 594 mmHg 68%
    04:00 -9°C° 0 mm 3 mps 594 mmHg 68%
    05:00 -9°C° 0 mm 3 mps 594 mmHg 69%
    06:00 -9°C° 0 mm 3 mps 594 mmHg 69%
    07:00 -9°C° 0 mm 3 mps 594 mmHg 69%
    08:00 -8°C° 0 mm 3 mps 594 mmHg 69%
    09:00 -7°C° 0 mm 3 mps 594 mmHg 68%
    10:00 -6°C° 0 mm 3 mps 594 mmHg 67%
    11:00 -5°C° 0 mm 3 mps 594 mmHg 67%
    12:00 -2°C° 0 mm 3 mps 594 mmHg 66%
    13:00 -2°C° 0 mm 3 mps 594 mmHg 66%
    14:00 -2°C° 0 mm 3 mps 593 mmHg 66%
    15:00 -2°C° 0 mm 3 mps 593 mmHg 67%
    16:00 -4°C° 0 mm 3 mps 592 mmHg 68%
    17:00 -6°C° 0 mm 3 mps 592 mmHg 70%
    18:00 -6°C° 0 mm 2 mps 591 mmHg 72%
    19:00 -7°C° 0 mm 2 mps 591 mmHg 70%
    20:00 -7°C° 0 mm 2 mps 591 mmHg 69%
    21:00 -7°C° 0 mm 2 mps 590 mmHg 67%
    22:00 -8°C° 0 mm 2 mps 590 mmHg 66%
    23:00 -7°C° 0 mm 1 mps 589 mmHg 65%

    Tomorrow, 17 January, Thursday

    Time Temperature Precipitation Wind Pressure Humidity
    00:00 -7°C° 0 mm 1 mps 589 mmHg 64%
    01:00 -7°C° 0 mm 1 mps 588 mmHg 64%
    02:00 -7°C° 0 mm 1 mps 588 mmHg 64%
    03:00 -7°C° 0 mm 1 mps 587 mmHg 64%
    04:00 -7°C° 0.1 mm 1 mps 587 mmHg 66%
    05:00 -8°C° 0.1 mm 2 mps 587 mmHg 69%
    06:00 -8°C° 0.1 mm 2 mps 587 mmHg 72%
    07:00 -8°C° 0.6 mm 2 mps 587 mmHg 76%
    08:00 -7°C° 0.6 mm 2 mps 588 mmHg 81%
    09:00 -7°C° 0.6 mm 2 mps 588 mmHg 86%
    10:00 -6°C° 0.2 mm 2 mps 588 mmHg 83%
    11:00 -6°C° 0.2 mm 2 mps 588 mmHg 81%
    12:00 -5°C° 0.2 mm 2 mps 588 mmHg 78%
    13:00 -6°C° 0.1 mm 3 mps 589 mmHg 78%
    14:00 -6°C° 0.1 mm 3 mps 589 mmHg 78%
    15:00 -7°C° 0.1 mm 4 mps 589 mmHg 78%
    16:00 -8°C° 0.2 mm 4 mps 589 mmHg 79%
    17:00 -9°C° 0.2 mm 4 mps 590 mmHg 81%
    18:00 -10°C° 0.2 mm 4 mps 590 mmHg 83%
    19:00 -10°C° 0.2 mm 4 mps 591 mmHg 81%
    20:00 -11°C° 0.2 mm 4 mps 591 mmHg 80%
    21:00 -12°C° 0.2 mm 5 mps 592 mmHg 78%
    22:00 -12°C° 0 mm 4 mps 592 mmHg 77%
    23:00 -12°C° 0 mm 4 mps 593 mmHg 76%

    Day after tomorrow, 18 January, Friday

    Time Temperature Precipitation Wind Pressure Humidity
    00:00 -14°C° 0 mm 4 mps 593 mmHg 74%
    01:00 -13°C° 0 mm 3 mps 593 mmHg 73%
    02:00 -13°C° 0 mm 3 mps 594 mmHg 72%
    03:00 -13°C° 0 mm 3 mps 594 mmHg 71%
    04:00 -14°C° 0 mm 3 mps 594 mmHg 71%
    05:00 -14°C° 0 mm 3 mps 594 mmHg 70%
    06:00 -14°C° 0 mm 3 mps 595 mmHg 70%
    07:00 -14°C° 0 mm 3 mps 595 mmHg 69%
    08:00 -13°C° 0 mm 3 mps 596 mmHg 69%
    09:00 -12°C° 0 mm 2 mps 597 mmHg 68%
    10:00 -9°C° 0 mm 2 mps 597 mmHg 66%
    11:00 -8°C° 0 mm 2 mps 598 mmHg 64%
    12:00 -7°C° 0 mm 2 mps 598 mmHg 62%
    13:00 -7°C° 0 mm 2 mps 598 mmHg 62%
    14:00 -7°C° 0 mm 2 mps 597 mmHg 62%
    15:00 -6°C° 0 mm 1 mps 597 mmHg 63%
    16:00 -7°C° 0 mm 1 mps 597 mmHg 64%
    17:00 -9°C° 0 mm 1 mps 597 mmHg 65%
    18:00 -10°C° 0 mm 1 mps 597 mmHg 65%
    19:00 -11°C° 0 mm 1 mps 597 mmHg 65%
    20:00 -13°C° 0 mm 2 mps 597 mmHg 64%
    21:00 -13°C° 0 mm 2 mps 598 mmHg 64%
    22:00 -13°C° 0 mm 2 mps 598 mmHg 63%
    23:00 -14°C° 0 mm 2 mps 598 mmHg 62%

    19 January, Saturday

    Time Temperature Precipitation Wind Pressure Humidity
    00:00 -14°C° 0 mm 2 mps 598 mmHg 61%
    01:00 -14°C° 0 mm 2 mps 598 mmHg 59%
    02:00 -14°C° 0 mm 2 mps 598 mmHg 57%
    03:00 -14°C° 0 mm 2 mps 598 mmHg 56%
    04:00 -15°C° 0 mm 2 mps 598 mmHg 55%
    05:00 -15°C° 0 mm 2 mps 597 mmHg 53%
    06:00 -15°C° 0 mm 2 mps 597 mmHg 52%
    07:00 -14°C° 0 mm 2 mps 598 mmHg 51%
    08:00 -13°C° 0 mm 2 mps 598 mmHg 51%
    09:00 -13°C° 0 mm 2 mps 599 mmHg 50%
    10:00 -9°C° 0 mm 1 mps 599 mmHg 49%
    11:00 -8°C° 0 mm 1 mps 599 mmHg 48%
    12:00 -6°C° 0 mm 1 mps 599 mmHg 47%
    13:00 -6°C° 0 mm 1 mps 599 mmHg 49%
    14:00 -6°C° 0 mm 0 mps 599 mmHg 50%
    15:00 -5°C° 0 mm 0 mps 598 mmHg 52%
    16:00 -7°C° 0 mm 1 mps 598 mmHg 52%
    17:00 -9°C° 0 mm 1 mps 598 mmHg 52%
    18:00 -10°C° 0 mm 1 mps 597 mmHg 52%
    19:00 -13°C° 0 mm 2 mps 598 mmHg 50%
    20:00 -13°C° 0 mm 2 mps 598 mmHg 48%
    21:00 -13°C° 0 mm 2 mps 598 mmHg 46%
    22:00 -13°C° 0 mm 2 mps 598 mmHg 45%
    23:00 -13°C° 0 mm 2 mps 598 mmHg 43%

    20 January, Sunday

    Time Temperature Precipitation Wind Pressure Humidity
    00:00 -13°C° 0 mm 2 mps 598 mmHg 42%
    01:00 -13°C° 0 mm 2 mps 598 mmHg 41%
    02:00 -11°C° 0 mm 1 mps 598 mmHg 41%
    03:00 -11°C° 0 mm 1 mps 598 mmHg 40%
    04:00 -11°C° 0 mm 1 mps 598 mmHg 41%
    05:00 -10°C° 0 mm 1 mps 598 mmHg 42%
    06:00 -10°C° 0 mm 1 mps 599 mmHg 43%
    07:00 -9°C° 0 mm 1 mps 599 mmHg 45%
    08:00 -9°C° 0 mm 1 mps 599 mmHg 48%
    09:00 -8°C° 0 mm 1 mps 600 mmHg 50%
    10:00 -7°C° 0 mm 1 mps 600 mmHg 48%
    11:00 -6°C° 0 mm 1 mps 600 mmHg 46%
    12:00 -4°C° 0 mm 1 mps 600 mmHg 44%
    13:00 -4°C° 0 mm 1 mps 599 mmHg 47%
    14:00 -4°C° 0 mm 1 mps 599 mmHg 50%
    15:00 -4°C° 0 mm 1 mps 599 mmHg 53%
    16:00 -7°C° 0 mm 1 mps 599 mmHg 54%
    17:00 -8°C° 0 mm 1 mps 598 mmHg 55%
    18:00 -10°C° 0 mm 1 mps 598 mmHg 56%
    19:00 -10°C° 0 mm 1 mps 598 mmHg 55%
    20:00 -10°C° 0 mm 1 mps 598 mmHg 55%
    21:00 -10°C° 0 mm 1 mps 599 mmHg 54%
    22:00 -10°C° 0 mm 1 mps 599 mmHg 54%
    23:00 -11°C° 0 mm 1 mps 599 mmHg 53%

    21 January, Monday

    Time Temperature Precipitation Wind Pressure Humidity
    00:00 -11°C° 0 mm 1 mps 599 mmHg 53%
    01:00 -11°C° 0 mm 1 mps 598 mmHg 52%
    02:00 -11°C° 0 mm 1 mps 598 mmHg 52%
    03:00 -11°C° 0 mm 1 mps 598 mmHg 51%
    04:00 -12°C° 0 mm 1 mps 598 mmHg 51%
    05:00 -12°C° 0 mm 1 mps 598 mmHg 51%
    06:00 -12°C° 0 mm 1 mps 598 mmHg 51%
    07:00 -11°C° 0 mm 1 mps 598 mmHg 51%
    08:00 -10°C° 0 mm 1 mps 598 mmHg 52%
    09:00 -10°C° 0 mm 1 mps 599 mmHg 52%
    10:00 -8°C° 0 mm 1 mps 599 mmHg 50%
    11:00 -7°C° 0 mm 1 mps 598 mmHg 48%
    12:00 -6°C° 0 mm 0 mps 598 mmHg 46%
    13:00 -6°C° 0 mm 0 mps 598 mmHg 49%
    14:00 -5°C° 0 mm 0 mps 598 mmHg 51%
    15:00 -5°C° 0 mm 0 mps 597 mmHg 54%
    16:00 -7°C° 0 mm 1 mps 597 mmHg 55%
    17:00 -8°C° 0 mm 1 mps 597 mmHg 57%
    18:00 -9°C° 0 mm 1 mps 597 mmHg 58%
    19:00 -10°C° 0 mm 1 mps 597 mmHg 58%
    20:00 -10°C° 0 mm 1 mps 597 mmHg 57%
    21:00 -12°C° 0 mm 2 mps 597 mmHg 57%
    22:00 -12°C° 0 mm 2 mps 597 mmHg 56%
    23:00 -13°C° 0 mm 2 mps 597 mmHg 55%
    Show more